Terminal Aerodrome Forecast
Issued by NWS Wilmington, OH

Current Version | Previous Version | Graphics & Text | Print | Product List | Glossary On
Versions: 1 2 3 4 5 6 7 8 9 10 11 12 13 14 15 16 17 18 19 20 21 22 23 24 25 26 27 28 29 30 31
000
FTUS41 KILN 211456 AAA
TAFCVG
TAF AMD
KCVG 211456Z 2115/2218 20010KT P6SM SCT009 BKN015
      TEMPO 2115/2116 P6SM BKN009
     FM211800 21009KT P6SM BKN025
     FM212100 23009KT P6SM VCSH BKN040
     FM220200 27007KT P6SM SCT040
     FM220700 28005KT P6SM SKC=

USA.gov is the U.S. government's official web portal to all federal, state and local government web resources and services.